TimeMDT,TemperatureF,Dew PointF,Humidity,Sea Level PressureIn,VisibilityMPH,Wind Direction,Wind SpeedMPH,Gust SpeedMPH,PrecipitationIn,Events,Conditions,WindDirDegrees,DateUTC
12:53 AM,64.9,48.0,54,30.12,10.0,SE,9.2,-,N/A,,Overcast,140,2013-07-01 06:53:00
1:53 AM,64.9,46.9,52,30.12,10.0,SSE,9.2,-,N/A,,Overcast,150,2013-07-01 07:53:00
2:43 AM,62.6,51.8,68,30.28,10.0,ESE,9.2,-,N/A,Thunderstorm,Mostly Cloudy,110,2013-07-01 08:43:00
2:53 AM,61.0,51.1,70,30.13,10.0,SSE,11.5,-,N/A,Thunderstorm,Mostly Cloudy,160,2013-07-01 08:53:00
3:13 AM,60.8,51.8,72,30.27,10.0,SSE,10.4,-,N/A,,Mostly Cloudy,150,2013-07-01 09:13:00
3:32 AM,60.8,51.8,72,30.30,10.0,ESE,17.3,21.9,N/A,Thunderstorm,Thunderstorm,110,2013-07-01 09:32:00
3:53 AM,57.9,54.0,87,30.15,6.0,SSE,16.1,25.3,0.12,Rain,Light Rain,160,2013-07-01 09:53:00
4:02 AM,57.2,55.4,94,30.28,10.0,SSE,15.0,-,0.00,Rain-Thunderstorm,Light Rain,150,2013-07-01 10:02:00
4:14 AM,57.2,55.4,94,30.30,10.0,SE,12.7,-,0.00,Thunderstorm,Overcast,130,2013-07-01 10:14:00
4:53 AM,57.9,55.0,90,30.15,8.0,South,12.7,-,0.03,Rain-Thunderstorm,Light Rain,180,2013-07-01 10:53:00
4:58 AM,57.2,55.4,94,30.30,9.0,South,8.1,-,0.00,Thunderstorm,Overcast,170,2013-07-01 10:58:00
5:53 AM,57.9,55.0,90,30.17,7.0,SSW,8.1,-,0.02,Rain,Light Rain,210,2013-07-01 11:53:00
6:53 AM,60.1,55.9,86,30.18,10.0,SW,10.4,-,0.02,,Overcast,220,2013-07-01 12:53:00
7:53 AM,61.0,55.9,83,30.20,10.0,SSW,4.6,-,N/A,,Mostly Cloudy,200,2013-07-01 13:53:00
8:53 AM,64.9,57.0,75,30.20,10.0,South,4.6,-,N/A,,Clear,190,2013-07-01 14:53:00
9:53 AM,69.1,55.9,63,30.20,10.0,SSE,10.4,-,N/A,,Partly Cloudy,150,2013-07-01 15:53:00
10:53 AM,72.0,55.0,55,30.20,10.0,SE,9.2,-,N/A,,Mostly Cloudy,140,2013-07-01 16:53:00
11:53 AM,75.0,54.0,48,30.19,10.0,SE,11.5,-,N/A,,Partly Cloudy,130,2013-07-01 17:53:00
12:53 PM,75.0,52.0,44,30.17,10.0,East,6.9,17.3,N/A,,Mostly Cloudy,80,2013-07-01 18:53:00
1:53 PM,78.1,51.1,39,30.16,10.0,Calm,Calm,-,N/A,,Mostly Cloudy,0,2013-07-01 19:53:00
2:53 PM,77.0,51.1,40,30.16,10.0,ESE,5.8,-,N/A,,Mostly Cloudy,110,2013-07-01 20:53:00
3:53 PM,77.0,51.1,40,30.16,10.0,South,9.2,-,0.02,,Clear,170,2013-07-01 21:53:00
4:53 PM,77.0,50.0,39,30.15,10.0,SSW,10.4,-,N/A,,Partly Cloudy,210,2013-07-01 22:53:00
5:53 PM,70.0,55.9,61,30.18,10.0,ESE,9.2,-,0.01,,Mostly Cloudy,110,2013-07-01 23:53:00
6:53 PM,72.0,52.0,49,30.16,10.0,SE,5.8,-,N/A,,Clear,140,2013-07-02 00:53:00
7:53 PM,69.1,55.0,61,30.16,10.0,East,6.9,-,N/A,,Mostly Cloudy,90,2013-07-02 01:53:00
8:53 PM,64.0,57.0,78,30.17,10.0,East,3.5,-,N/A,,Clear,90,2013-07-02 02:53:00
9:53 PM,61.0,53.1,75,30.19,10.0,SE,6.9,-,N/A,,Clear,130,2013-07-02 03:53:00
10:53 PM,60.1,51.1,72,30.19,10.0,SSE,9.2,-,N/A,,Scattered Clouds,150,2013-07-02 04:53:00
11:53 PM,59.0,48.0,67,30.19,10.0,SSE,9.2,-,N/A,,Clear,160,2013-07-02 05:53:00